Time,TemperatureF,DewpointF,PressureIn,WindDirection,WindDirectionDegrees,WindSpeedMPH,WindSpeedGustMPH,Humidity,HourlyPrecipIn,Conditions,Clouds,dailyrainin,SolarRadiationWatts/m^2,SoftwareType,DateUTC
2013-08-16 00:00:00,65.4,57.0,30.10,SW,220,1.0,9.0,73,0.00,,,0.00,0,weatherlink.com 1.10,2013-08-16 04:00:00,
2013-08-16 00:15:00,65.1,56.0,30.10,SW,220,0.0,6.0,73,0.00,,,0.00,0,weatherlink.com 1.10,2013-08-16 04:15:00,
2013-08-16 00:30:00,64.9,56.0,30.10,SW,222,4.0,7.0,73,0.00,,,0.00,0,weatherlink.com 1.10,2013-08-16 04:30:00,
2013-08-16 00:45:00,64.8,56.0,30.10,SW,226,2.0,7.0,74,0.00,,,0.00,0,weatherlink.com 1.10,2013-08-16 04:45:00,
2013-08-16 01:00:00,64.5,56.0,30.10,SW,226,4.0,7.0,75,0.00,,,0.00,0,weatherlink.com 1.10,2013-08-16 05:00:00,
2013-08-16 01:15:00,64.1,56.0,30.10,SW,226,3.0,4.0,75,0.00,,,0.00,0,weatherlink.com 1.10,2013-08-16 05:15:00,
2013-08-16 01:30:00,63.9,56.0,30.10,SW,227,2.0,7.0,76,0.00,,,0.00,0,weatherlink.com 1.10,2013-08-16 05:30:00,
2013-08-16 01:45:00,63.8,56.0,30.10,SW,227,5.0,8.0,76,0.00,,,0.00,0,weatherlink.com 1.10,2013-08-16 05:45:00,
2013-08-16 02:01:00,63.6,56.0,30.10,SW,227,0.0,4.0,76,0.00,,,0.00,0,weatherlink.com 1.10,2013-08-16 06:01:00,
2013-08-16 02:16:00,63.4,56.0,30.10,SW,227,0.0,2.0,77,0.00,,,0.00,0,weatherlink.com 1.10,2013-08-16 06:16:00,
2013-08-16 02:31:00,63.1,56.0,30.10,SW,227,0.0,0.0,77,0.00,,,0.00,0,weatherlink.com 1.10,2013-08-16 06:31:00,
2013-08-16 02:46:00,62.6,55.0,30.10,SW,227,0.0,0.0,76,0.00,,,0.00,0,weatherlink.com 1.10,2013-08-16 06:46:00,
2013-08-16 03:01:00,62.2,55.0,30.10,SW,227,0.0,2.0,77,0.00,,,0.00,0,weatherlink.com 1.10,2013-08-16 07:01:00,
2013-08-16 03:16:00,62.1,55.0,30.10,SW,227,0.0,3.0,77,0.00,,,0.00,0,weatherlink.com 1.10,2013-08-16 07:16:00,
2013-08-16 03:31:00,62.2,55.0,30.10,SW,227,0.0,1.0,78,0.00,,,0.00,0,weatherlink.com 1.10,2013-08-16 07:31:00,
2013-08-16 03:46:00,62.1,55.0,30.10,SW,227,0.0,0.0,78,0.00,,,0.00,0,weatherlink.com 1.10,2013-08-16 07:46:00,
2013-08-16 04:01:00,61.7,55.0,30.10,SW,227,0.0,0.0,78,0.00,,,0.00,0,weatherlink.com 1.10,2013-08-16 08:01:00,
2013-08-16 04:16:00,61.2,55.0,30.10,SW,227,0.0,0.0,79,0.00,,,0.00,0,weatherlink.com 1.10,2013-08-16 08:16:00,
2013-08-16 04:31:00,60.7,54.0,30.10,SW,227,0.0,2.0,79,0.00,,,0.00,0,weatherlink.com 1.10,2013-08-16 08:31:00,
2013-08-16 04:46:00,60.3,54.0,30.10,SW,227,0.0,4.0,80,0.00,,,0.00,0,weatherlink.com 1.10,2013-08-16 08:46:00,
2013-08-16 05:01:00,60.2,54.0,30.10,SW,227,0.0,1.0,79,0.00,,,0.00,0,weatherlink.com 1.10,2013-08-16 09:01:00,
2013-08-16 05:16:00,60.4,54.0,30.10,SW,227,0.0,1.0,79,0.00,,,0.00,0,weatherlink.com 1.10,2013-08-16 09:16:00,
2013-08-16 05:31:00,60.5,54.0,30.10,SW,227,0.0,2.0,79,0.00,,,0.00,0,weatherlink.com 1.10,2013-08-16 09:31:00,
2013-08-16 05:46:00,60.4,54.0,30.10,SW,227,0.0,2.0,80,0.00,,,0.00,0,weatherlink.com 1.10,2013-08-16 09:46:00,
2013-08-16 06:01:00,60.5,54.0,30.11,SW,229,0.0,8.0,80,0.00,,,0.00,11,weatherlink.com 1.10,2013-08-16 10:01:00,
2013-08-16 06:16:00,60.8,54.0,30.12,WSW,241,2.0,8.0,78,0.00,,,0.00,30,weatherlink.com 1.10,2013-08-16 10:16:00,
2013-08-16 06:31:00,61.5,55.0,30.12,WSW,242,0.0,2.0,78,0.00,,,0.00,39,weatherlink.com 1.10,2013-08-16 10:31:00,
2013-08-16 06:46:00,63.1,56.0,30.12,WSW,242,0.0,0.0,78,0.00,,,0.00,113,weatherlink.com 1.10,2013-08-16 10:46:00,
2013-08-16 07:01:00,65.1,57.0,30.12,WSW,242,0.0,0.0,75,0.00,,,0.00,158,weatherlink.com 1.10,2013-08-16 11:01:00,
2013-08-16 07:16:00,66.7,56.0,30.12,WSW,242,0.0,5.0,69,0.00,,,0.00,188,weatherlink.com 1.10,2013-08-16 11:16:00,
2013-08-16 07:31:00,66.9,56.0,30.12,WSW,242,0.0,5.0,69,0.00,,,0.00,221,weatherlink.com 1.10,2013-08-16 11:31:00,
2013-08-16 07:46:00,67.7,56.0,30.13,WSW,242,0.0,4.0,67,0.00,,,0.00,311,weatherlink.com 1.10,2013-08-16 11:46:00,
2013-08-16 08:01:00,69.6,56.0,30.13,WSW,242,5.0,6.0,63,0.00,,,0.00,236,weatherlink.com 1.10,2013-08-16 12:01:00,
2013-08-16 08:16:00,71.3,57.0,30.13,WSW,254,0.0,9.0,61,0.00,,,0.00,411,weatherlink.com 1.10,2013-08-16 12:16:00,
2013-08-16 08:31:00,72.8,57.0,30.13,WSW,256,0.0,5.0,58,0.00,,,0.00,461,weatherlink.com 1.10,2013-08-16 12:31:00,
2013-08-16 08:46:00,73.5,56.0,30.12,WSW,258,6.0,10.0,55,0.00,,,0.00,499,weatherlink.com 1.10,2013-08-16 12:46:00,
2013-08-16 09:02:00,74.3,58.0,30.12,West,269,0.0,7.0,57,0.00,,,0.00,394,weatherlink.com 1.10,2013-08-16 13:02:00,
2013-08-16 09:17:00,74.5,57.0,30.12,West,271,0.0,6.0,55,0.00,,,0.00,485,weatherlink.com 1.10,2013-08-16 13:17:00,
2013-08-16 09:32:00,75.8,57.0,30.12,WNW,294,0.0,10.0,53,0.00,,,0.00,578,weatherlink.com 1.10,2013-08-16 13:32:00,
2013-08-16 09:47:00,75.5,58.0,30.13,West,262,7.0,9.0,55,0.00,,,0.00,635,weatherlink.com 1.10,2013-08-16 13:47:00,
2013-08-16 10:02:00,76.3,57.0,30.13,West,277,7.0,14.0,52,0.00,,,0.00,668,weatherlink.com 1.10,2013-08-16 14:02:00,
2013-08-16 10:17:00,76.5,58.0,30.13,West,260,2.0,12.0,53,0.00,,,0.00,708,weatherlink.com 1.10,2013-08-16 14:17:00,
2013-08-16 10:32:00,77.3,58.0,30.13,West,265,6.0,14.0,52,0.00,,,0.00,714,weatherlink.com 1.10,2013-08-16 14:32:00,
2013-08-16 10:47:00,77.3,57.0,30.13,WSW,250,5.0,12.0,49,0.00,,,0.00,747,weatherlink.com 1.10,2013-08-16 14:47:00,
2013-08-16 11:02:00,78.1,57.0,30.13,WSW,250,10.0,14.0,48,0.00,,,0.00,840,weatherlink.com 1.10,2013-08-16 15:02:00,
2013-08-16 11:17:00,78.7,59.0,30.13,WSW,253,7.0,16.0,51,0.00,,,0.00,860,weatherlink.com 1.10,2013-08-16 15:17:00,
2013-08-16 11:32:00,79.8,56.0,30.13,West,269,5.0,16.0,44,0.00,,,0.00,867,weatherlink.com 1.10,2013-08-16 15:32:00,
2013-08-16 11:47:00,80.3,58.0,30.13,NW,304,2.0,17.0,46,0.00,,,0.00,914,weatherlink.com 1.10,2013-08-16 15:47:00,
2013-08-16 12:02:00,79.2,57.0,30.13,WSW,244,8.0,13.0,47,0.00,,,0.00,889,weatherlink.com 1.10,2013-08-16 16:02:00,
2013-08-16 12:17:00,79.5,56.0,30.13,West,277,4.0,15.0,44,0.00,,,0.00,97,weatherlink.com 1.10,2013-08-16 16:17:00,
2013-08-16 12:32:00,79.5,57.0,30.13,West,281,3.0,10.0,46,0.00,,,0.00,891,weatherlink.com 1.10,2013-08-16 16:32:00,
2013-08-16 12:47:00,80.0,55.0,30.13,West,279,0.0,14.0,43,0.00,,,0.00,914,weatherlink.com 1.10,2013-08-16 16:47:00,
2013-08-16 13:02:00,80.5,57.0,30.12,West,259,7.0,21.0,44,0.00,,,0.00,114,weatherlink.com 1.10,2013-08-16 17:02:00,
2013-08-16 13:17:00,80.6,55.0,30.13,West,269,3.0,11.0,42,0.00,,,0.00,919,weatherlink.com 1.10,2013-08-16 17:17:00,
2013-08-16 13:32:00,80.5,57.0,30.13,NW,312,2.0,18.0,44,0.00,,,0.00,197,weatherlink.com 1.10,2013-08-16 17:32:00,
2013-08-16 13:47:00,79.6,57.0,30.13,WNW,296,2.0,10.0,46,0.00,,,0.00,951,weatherlink.com 1.10,2013-08-16 17:47:00,
2013-08-16 14:02:00,80.1,58.0,30.13,West,280,1.0,14.0,47,0.00,,,0.00,932,weatherlink.com 1.10,2013-08-16 18:02:00,
2013-08-16 14:17:00,80.5,57.0,30.13,WNW,296,5.0,12.0,44,0.00,,,0.00,842,weatherlink.com 1.10,2013-08-16 18:17:00,
2013-08-16 14:32:00,81.2,58.0,30.12,West,279,0.0,14.0,46,0.00,,,0.00,302,weatherlink.com 1.10,2013-08-16 18:32:00,
2013-08-16 14:47:00,80.3,56.0,30.12,West,269,3.0,11.0,43,0.00,,,0.00,111,weatherlink.com 1.10,2013-08-16 18:47:00,
2013-08-16 15:02:00,79.4,56.0,30.12,WSW,254,2.0,14.0,45,0.00,,,0.00,207,weatherlink.com 1.10,2013-08-16 19:02:00,
2013-08-16 15:17:00,79.5,57.0,30.12,WNW,288,1.0,14.0,46,0.00,,,0.00,104,weatherlink.com 1.10,2013-08-16 19:17:00,
2013-08-16 15:32:00,79.3,57.0,30.12,WNW,288,3.0,8.0,47,0.00,,,0.00,163,weatherlink.com 1.10,2013-08-16 19:32:00,
2013-08-16 15:47:00,79.1,57.0,30.12,WNW,282,0.0,4.0,46,0.00,,,0.00,144,weatherlink.com 1.10,2013-08-16 19:47:00,
2013-08-16 16:02:00,79.6,54.0,30.11,WSW,250,4.0,8.0,42,0.00,,,0.00,95,weatherlink.com 1.10,2013-08-16 20:02:00,
2013-08-16 16:17:00,79.4,57.0,30.11,NW,308,3.0,8.0,46,0.00,,,0.00,56,weatherlink.com 1.10,2013-08-16 20:17:00,
2013-08-16 16:32:00,79.2,55.0,30.10,West,279,0.0,7.0,44,0.00,,,0.00,79,weatherlink.com 1.10,2013-08-16 20:32:00,
2013-08-16 16:47:00,79.7,55.0,30.11,West,273,0.0,7.0,43,0.00,,,0.00,69,weatherlink.com 1.10,2013-08-16 20:47:00,
2013-08-16 17:02:00,79.7,55.0,30.10,West,259,6.0,10.0,42,0.00,,,0.00,49,weatherlink.com 1.10,2013-08-16 21:02:00,
2013-08-16 17:17:00,79.4,54.0,30.11,West,263,4.0,8.0,42,0.00,,,0.00,62,weatherlink.com 1.10,2013-08-16 21:17:00,
2013-08-16 17:32:00,79.3,54.0,30.11,West,278,4.0,8.0,42,0.00,,,0.00,39,weatherlink.com 1.10,2013-08-16 21:32:00,
2013-08-16 17:47:00,78.7,55.0,30.11,West,271,2.0,7.0,44,0.00,,,0.00,53,weatherlink.com 1.10,2013-08-16 21:47:00,
2013-08-16 18:02:00,78.4,55.0,30.11,West,271,1.0,8.0,44,0.00,,,0.00,46,weatherlink.com 1.10,2013-08-16 22:02:00,
2013-08-16 18:17:00,78.4,55.0,30.11,WSW,258,0.0,7.0,45,0.00,,,0.00,47,weatherlink.com 1.10,2013-08-16 22:17:00,
2013-08-16 18:32:00,78.2,56.0,30.11,West,271,0.0,8.0,46,0.00,,,0.00,33,weatherlink.com 1.10,2013-08-16 22:32:00,
2013-08-16 18:47:00,77.6,56.0,30.12,WNW,297,3.0,5.0,47,0.00,,,0.00,35,weatherlink.com 1.10,2013-08-16 22:47:00,
2013-08-16 19:02:00,77.3,55.0,30.13,WSW,255,1.0,7.0,47,0.00,,,0.00,21,weatherlink.com 1.10,2013-08-16 23:02:00,
2013-08-16 19:17:00,76.8,56.0,30.13,West,268,4.0,7.0,49,0.00,,,0.00,14,weatherlink.com 1.10,2013-08-16 23:17:00,
2013-08-16 19:32:00,76.1,55.0,30.13,West,267,0.0,6.0,49,0.00,,,0.00,5,weatherlink.com 1.10,2013-08-16 23:32:00,
2013-08-16 19:47:00,75.3,56.0,30.13,West,267,0.0,1.0,51,0.00,,,0.00,0,weatherlink.com 1.10,2013-08-16 23:47:00,
2013-08-16 20:02:00,74.5,56.0,30.13,West,267,0.0,5.0,52,0.00,,,0.00,0,weatherlink.com 1.10,2013-08-17 00:02:00,
2013-08-16 20:17:00,74.0,59.0,30.14,WSW,242,1.0,8.0,59,0.00,,,0.00,0,weatherlink.com 1.10,2013-08-17 00:17:00,
2013-08-16 20:32:00,72.9,60.0,30.15,SW,229,2.0,7.0,64,0.00,,,0.00,0,weatherlink.com 1.10,2013-08-17 00:32:00,
2013-08-16 20:47:00,71.7,60.0,30.16,SW,232,7.0,11.0,67,0.00,,,0.00,0,weatherlink.com 1.10,2013-08-17 00:47:00,
2013-08-16 21:02:00,71.1,60.0,30.16,SW,234,3.0,11.0,68,0.00,,,0.00,0,weatherlink.com 1.10,2013-08-17 01:02:00,
2013-08-16 21:17:00,70.5,60.0,30.17,SW,234,7.0,11.0,69,0.00,,,0.00,0,weatherlink.com 1.10,2013-08-17 01:17:00,
2013-08-16 21:33:00,69.9,60.0,30.17,SW,236,5.0,13.0,70,0.00,,,0.00,0,weatherlink.com 1.10,2013-08-17 01:33:00,
2013-08-16 21:48:00,69.4,60.0,30.17,SW,234,5.0,10.0,72,0.00,,,0.00,0,weatherlink.com 1.10,2013-08-17 01:48:00,
2013-08-16 22:03:00,68.9,60.0,30.17,SW,229,5.0,11.0,73,0.00,,,0.00,0,weatherlink.com 1.10,2013-08-17 02:03:00,
2013-08-16 22:18:00,68.4,60.0,30.18,SW,227,5.0,10.0,74,0.00,,,0.00,0,weatherlink.com 1.10,2013-08-17 02:18:00,
2013-08-16 22:33:00,68.4,60.0,30.17,SW,231,5.0,9.0,74,0.00,,,0.00,0,weatherlink.com 1.10,2013-08-17 02:33:00,
2013-08-16 22:48:00,68.4,60.0,30.18,SW,231,4.0,9.0,75,0.00,,,0.00,0,weatherlink.com 1.10,2013-08-17 02:48:00,
2013-08-16 23:03:00,68.1,59.0,30.18,WSW,242,4.0,9.0,73,0.00,,,0.00,0,weatherlink.com 1.10,2013-08-17 03:03:00,
2013-08-16 23:18:00,67.9,59.0,30.18,WSW,249,3.0,13.0,73,0.00,,,0.00,0,weatherlink.com 1.10,2013-08-17 03:18:00,
2013-08-16 23:33:00,67.8,59.0,30.18,WSW,250,2.0,7.0,73,0.00,,,0.00,0,weatherlink.com 1.10,2013-08-17 03:33:00,
2013-08-16 23:48:00,67.8,58.0,30.18,West,259,4.0,15.0,72,0.00,,,0.00,0,weatherlink.com 1.10,2013-08-17 03:48:00,